Bowling Green, KY

12:43 PM CDT on July 28, 2016 (GMT -0500)
Bowling Green-Warren County Regional

Weather History for KBWG - January, 2013

Change the Weather History Date:

Tuesday, January 15, 2013

  Actual Average Record
Temperature  
Mean Temperature 32 °F 35 °F  
Max Temperature 36 °F 45 °F 70 °F (1952)
Min Temperature 27 °F 26 °F -3 °F (1964)
Degree Days  
Heating Degree Days 33 30  
Month to date heating degree days 347 445  
Since 1 July heating degree days 1772 2029  
Cooling Degree Days 0 0  
Month to date cooling degree days 0 0  
Year to date cooling degree days 0 0  
Moisture  
Dew Point 27 °F    
Average Humidity 82    
Maximum Humidity 89    
Minimum Humidity 75    
Precipitation  
Precipitation 0.14 in 0.11 in 3.02 in (1898)
Month to date precipitation 3.69 1.72  
Year to date precipitation 3.69 1.72  
Snow  
Snow T in 0.10 in 4.00 in (1917)
Month to date snowfall 0.1 1.4  
Since 1 July snowfall 0.1 2.6  
Snow Depth 0.00 in    
Sea Level Pressure  
Sea Level Pressure 30.19 in    
Wind  
Wind Speed 8 mph (NNE)    
Max Wind Speed 15 mph    
Max Gust Speed 20 mph    
Visibility 8 miles    
Events Rain    
T = Trace of Precipitation, MM = Missing Value Source: NWS Daily Summary

Daily Weather History Graph

Daily Weather History Graph

Search for Another Location

Airport or City:

Trip Planner

Search our weather history database for the weather conditions in past years. The results will help you decide how hot, cold, wet, or windy it might be!

Date:

Astronomy

Jan. 15, 2013 Rise Set
Actual Time 6:57 AM CST 4:52 PM CST
Civil Twilight 6:29 AM CST 5:21 PM CST
Nautical Twilight 5:57 AM CST 5:53 PM CST
Astronomical Twilight 5:26 AM CST 6:24 PM CST
Moon 9:10 AM CST (1/15) 9:33 PM CST (1/15)
Length of Visible Light 10h 51m
Length of Day
9h 55m
Waxing Crescent, 19% of the Moon is Illuminated
Jan 15
Waxing Crescent
Jan 18
First Quarter
Jan 26
Full
Feb 3
Last Quarter
Feb 10
New

Hourly Weather History & Observations

Time (CST) Temp. Windchill Dew Point Humidity Pressure Visibility Wind Dir Wind Speed Gust Speed Precip Events Conditions
12:53 AM 28.9 °F 21.9 °F 24.1 °F 82% 30.30 in 10.0 mi North 6.9 mph - N/A   Clear
2:53 AM 28.0 °F 20.0 °F 23.0 °F 81% 30.30 in 10.0 mi North 8.1 mph - N/A   Mostly Cloudy
3:53 AM 27.0 °F 18.7 °F 21.9 °F 81% 30.31 in 10.0 mi NNE 8.1 mph - N/A   Mostly Cloudy
4:02 AM 26.6 °F 18.2 °F 21.2 °F 80% 30.29 in 10.0 mi NNE 8.1 mph - N/A   Scattered Clouds
4:31 AM 26.6 °F 20.0 °F 21.2 °F 80% 30.28 in 10.0 mi NNE 5.8 mph - N/A   Scattered Clouds
4:39 AM 26.6 °F 20.0 °F 21.2 °F 80% 30.28 in 10.0 mi NNE 5.8 mph - N/A   Mostly Cloudy
4:53 AM 27.0 °F 20.5 °F 21.9 °F 81% 30.30 in 10.0 mi NE 5.8 mph - N/A   Mostly Cloudy
5:53 AM 28.0 °F 20.0 °F 24.1 °F 85% 30.29 in 8.0 mi NE 8.1 mph - N/A   Overcast
6:41 AM 28.4 °F 22.2 °F 24.8 °F 86% 30.27 in 8.0 mi NE 5.8 mph - N/A   Scattered Clouds
6:51 AM 28.4 °F 22.2 °F 24.8 °F 86% 30.28 in 8.0 mi NE 5.8 mph - N/A   Mostly Cloudy
6:53 AM 28.0 °F 21.7 °F 24.1 °F 85% 30.30 in 8.0 mi NNE 5.8 mph - N/A   Mostly Cloudy
7:53 AM 28.9 °F 21.9 °F 24.1 °F 82% 30.29 in 6.0 mi NE 6.9 mph - N/A   Haze
8:53 AM 30.9 °F 22.8 °F 26.1 °F 82% 30.30 in 8.0 mi NNE 9.2 mph - N/A   Overcast
9:53 AM 30.9 °F 22.8 °F 26.1 °F 82% 30.28 in 8.0 mi NE 9.2 mph - N/A   Overcast
10:53 AM 33.1 °F 24.9 °F 27.0 °F 78% 30.25 in 8.0 mi NNE 10.4 mph - N/A   Overcast
11:53 AM 34.0 °F 25.5 °F 28.0 °F 79% 30.18 in 8.0 mi NE 11.5 mph - N/A   Overcast
12:53 PM 35.1 °F 25.5 °F 28.9 °F 78% 30.12 in 8.0 mi NE 15.0 mph - N/A   Overcast
1:51 PM 35.6 °F 28.6 °F 28.4 °F 75% 30.15 in 10.0 mi NNE 9.2 mph - N/A   Overcast
1:53 PM 35.1 °F 29.3 °F 28.9 °F 78% 30.17 in 10.0 mi North 6.9 mph - N/A   Overcast
2:53 PM 35.1 °F 26.4 °F 28.0 °F 76% 30.16 in 9.0 mi North 12.7 mph 19.6 mph N/A   Overcast
3:53 PM 35.1 °F 27.9 °F 28.0 °F 76% 30.17 in 9.0 mi NNE 9.2 mph - N/A   Overcast
4:08 PM 35.6 °F 27.5 °F 28.4 °F 75% 30.13 in 9.0 mi NE 11.5 mph - N/A   Overcast
4:53 PM 34.0 °F 28.0 °F 28.0 °F 79% 30.17 in 7.0 mi North 6.9 mph - 0.00 in   Overcast
5:02 PM 33.8 °F 26.4 °F 28.4 °F 81% 30.13 in 8.0 mi NNE 9.2 mph - 0.00 in   Overcast
5:53 PM 34.0 °F 28.0 °F 28.9 °F 82% 30.17 in 6.0 mi NNE 6.9 mph - 0.01 in Rain Light Rain
6:27 PM 33.8 °F 25.8 °F 28.4 °F 81% 30.11 in 5.0 mi NE 10.4 mph - 0.03 in Rain Light Rain
6:53 PM 33.1 °F 26.1 °F 28.9 °F 85% 30.14 in 7.0 mi NNE 8.1 mph - 0.04 in   Overcast
7:53 PM 33.1 °F 28.7 °F 30.0 °F 89% 30.12 in 6.0 mi North 4.6 mph - 0.02 in Rain Light Rain
8:26 PM 33.8 °F 29.6 °F 30.2 °F 87% 30.10 in 6.0 mi NNE 4.6 mph - 0.00 in   Overcast
8:41 PM 33.8 °F 27.7 °F 30.2 °F 87% 30.08 in 6.0 mi ENE 6.9 mph - 0.00 in   Overcast
8:53 PM 33.1 °F 23.9 °F 30.0 °F 89% 30.03 in 5.0 mi ENE 12.7 mph - 0.00 in Rain Light Rain
9:18 PM 33.8 °F 30.8 °F 30.2 °F 87% 30.07 in 6.0 mi NNE 3.5 mph - 0.00 in   Overcast
9:53 PM 34.0 °F - 30.9 °F 89% 30.09 in 4.0 mi Calm Calm - 0.01 in Rain Light Rain
10:53 PM 34.0 °F 29.8 °F 30.9 °F 89% 30.09 in 5.0 mi NNW 4.6 mph - 0.05 in Rain Light Rain
11:26 PM 33.8 °F 27.7 °F 30.2 °F 87% 30.07 in 5.0 mi NNW 6.9 mph - 0.01 in   Overcast
11:53 PM 33.1 °F 27.7 °F 30.9 °F 92% 30.06 in 6.0 mi North 5.8 mph - 0.01 in   Overcast